Regional Weather Roundup
Issued by NWS

Home | Current Version | Previous Version | Text Only | Print | Product List | Glossary Off
Versions: 1 2 3 4 5 6 7 8 9 10 11 12 13 14 15 16 17 18 19 20 21 22 23 24 25 26 27 28 29 30 31 32 33 34 35 36 37 38 39 40 41 42 43 44 45 46 47 48 49 50

000
ASUS45 KABQ 281401
RWRNM
NEW MEXICO REGIONAL WEATHER ROUNDUP
NATIONAL WEATHER SERVICE ALBUQUERQUE NM
800 AM MDT TUE MAR 28 2017

NOTE: "FAIR" MEANS FEW OR NO CLOUDS BELOW 12,000 FEET AGL WITH NO
       SIGNIFICANT WEATHER OR OBSTRUCTIONS TO VISION.

      THIS PRODUCT IS RELEASED AS TWO VERSIONS.  ONE VERSION NEAR
      THE TOP OF THE HOUR CONTAINING PRELIMINARY DATA FROM ALBUQUERQUE
      AND OTHER STATIONS.  A FINAL VERSION WITH ADDITIONAL DATA IS
      ISSUED ABOUT 10 MINUTES AFTER THE HOUR.

NMZ501-503-504-510>518-281500-
NORTHWEST PLATEAU/NORTHCENTRAL MOUNTAINS

CITY           SKY/WX    TMP DP  RH WIND       PRES   REMARKS
FARMINGTON     PTSUNNY   38  37  97 W5        29.84R WCI  34
LOS ALAMOS     CLOUDY    38  34  84 CALM      29.85R
SANTA FE       CLOUDY    40  39  97 S6        29.83R
TAOS             N/A     30  25  80 N3        29.85S
ANGEL FIRE     FAIR      30  29  96 CALM      29.89R

$$
NMZ402-403-502-505>509-281500-
WESTCENTRAL MOUNTAINS/SOUTHWEST MOUNTAINS

CITY           SKY/WX    TMP DP  RH WIND       PRES   REMARKS
GALLUP         CLOUDY    34  33  96 CALM      29.87R
GRANTS         FAIR      34  31  88 CALM      29.84S
SILVER CITY    PTSUNNY   46  31  56 W12       29.85R

$$
NMZ407-409-411-412-281500-
SOUTHERN DESERTS

CITY           SKY/WX    TMP DP  RH WIND       PRES   REMARKS
DEMING         FAIR      51  34  52 W8        29.82R
LAS CRUCES     CLOUDY    52  34  51 W7        29.83R
HOLLOMAN AFB   FAIR      56  33  41 S6        29.83R
ALAMOGORDO     PTSUNNY   55  34  44 S3        29.80R
T OR C         FAIR      48  36  63 W3        29.79R

$$
NMZ519>523-281500-
CENTRAL VALLEYS/CENTRAL HIGHLANDS

CITY           SKY/WX    TMP DP  RH WIND       PRES   REMARKS
ALBUQUERQUE    CLOUDY    43  39  86 NE7       29.85F
MORIARTY ARPT  RAIN      42  38  85 W16G23    29.84R
CLINES CORNERS LGT RAIN  39  36  89 CALM      29.86R
BELEN          DRIZZLE   43  38  85 CALM      29.86R
SOCORRO        CLOUDY    46  39  77 N9        29.82R

$$
NMZ524>526-539-540-281500-
SOUTHCENTRAL MOUNTAINS

CITY           SKY/WX    TMP DP  RH WIND       PRES   REMARKS
RUIDOSO        NOT AVBL

$$
NMZ527>531-281500-
NORTHEAST HIGHLANDS/NORTHEAST PLAINS

CITY           SKY/WX    TMP DP  RH WIND       PRES   REMARKS
LAS VEGAS      FAIR      40  35  83 CALM      29.85R
RATON          CLOUDY    44  36  73 S14       29.84R
CLAYTON        LGT RAIN  46  44  93 NW5       29.85S

$$
NMZ532>537-281500-
EASTCENTRAL PLAINS

CITY           SKY/WX    TMP DP  RH WIND       PRES   REMARKS
TUCUMCARI      CLOUDY    55  44  66 S6        29.81R
CANNON AFB     CLOUDY    51  51 100 NE7       29.79S
CLOVIS AIRPORT CLOUDY    52  45  76 E8        29.80R

$$
NMZ028-029-538-281500-
SOUTHEAST PLAINS

CITY           SKY/WX    TMP DP  RH WIND       PRES   REMARKS
ROSWELL        CLOUDY    59  33  37 N6        29.77
ARTESIA        FAIR      59  32  36 CALM      29.76R
CARLSBAD       FAIR      58  31  35 N8        29.74R
HOBBS          PTSUNNY   59  55  88 S8        29.76R


$$



USA.gov is the U.S. government's official web portal to all federal, state and local government web resources and services.